Regional Weather Roundup
Issued by NWS

Home | Current Version | Previous Version | Text Only | Print | Product List | Glossary Off
Versions: 1 2 3 4 5 6 7 8 9 10 11 12 13 14 15 16 17 18 19 20 21 22 23 24 25 26 27 28 29 30 31 32 33 34 35 36 37 38 39 40 41 42 43 44 45 46 47 48 49 50

170
ASUS43 KLOT 120403
RWRIL

ILLINOIS REGIONAL WEATHER ROUNDUP
NATIONAL WEATHER SERVICE CHICAGO/ROMEOVILLE IL
1000 PM CST THU FEB 11 2016

NOTE: "FAIR" INDICATES FEW OR NO CLOUDS BELOW 12,000 FEET WITH NO
SIGNIFICANT WEATHER AND/OR OBSTRUCTIONS TO VISIBILITY.

* THESE STATIONS ARE NOT UNDER NWS QUALITY CONTROL. THEY ALSO MAY NOT
  REPORT WEATHER SUCH AS PRECIPITATION OR FOG.

ILZ001-002-007-009-015-016-024-120500-
NORTHWEST ILLINOIS

CITY           SKY/WX    TMP DP  RH WIND       PRES   REMARKS
MOLINE         CLOUDY    22   8  55 S5        30.26F WCI  16
STERLING*      CLEAR     18   7  62 CALM      30.24F
$$

ILZ003-004-008-010-011-017-018-120500-
NORTH CENTRAL ILLINOIS

CITY           SKY/WX    TMP DP  RH WIND       PRES   REMARKS
ROCKFORD       MOCLDY    18   6  59 SW3       30.27F
FREEPORT*      MOCLDY    18   8  65 W5        30.27F WCI  11
DE KALB*       CLOUDY    18   8  63 SW6       30.25S WCI  10
$$

ILZ005-006-012>014-019>023-120500-
NORTHEAST ILLINOIS

CITY           SKY/WX    TMP DP  RH WIND       PRES   REMARKS
CHICAGO-OHARE  MOCLDY    17   7  64 CALM      30.26F
CHICAGO-MIDWAY MOCLDY    19   4  51 SW5       30.27F WCI  12
AURORA         CLOUDY    19  10  68 SW5       30.27S WCI  12
LANSING*       CLEAR     15   7  70 CALM      30.28S
WAUKEGAN       CLOUDY    14   6  70 SW3       30.24F
DUPAGE AIRPORT PTCLDY    13   5  70 CALM      30.25F
WHEELING       CLOUDY    17   5  59 CALM      30.27F
NORTHERLY ISL    N/A     20   5  52 W5          N/A  WCI  14
$$

LMZ740>746-120500-
SOUTHERN LAKE MICHIGAN

STATION/POSITION SKY/WX   TEMP    WIND        PRES    VSBY  WAVE
                          AIR SEA DIR/SP/G                  HT/PER
                          (F)     (DEG/KT/KT) (MB)    (MI)  (FT/S)
HARRISON CRIB              21     270/ 11/ 12   N/A
BURNHAM HARBOR             20     260/  4/  9   N/A
CALUMET HARBOR             19                 1024.7
BURNS HARBOR               18     200/  7/  8 1025.7S
MICHIGAN CITY              17     150/  8/ 10   N/A
$$

ILZ025>027-034>036-040-047-049-050-058-095>099-120500-
WEST-CENTRAL ILLINOIS

CITY           SKY/WX    TMP DP  RH WIND       PRES   REMARKS
QUINCY         LGT SNOW  21  15  78 E5        30.27S WCI  15
MACOMB*        CLOUDY    25  14  62 CALM      30.29F
$$

ILZ028>032-037-038-041>044-048-051>054-059>061-120500-
CENTRAL ILLINOIS

CITY           SKY/WX    TMP DP  RH WIND       PRES   REMARKS
BLOOMINGTON    CLOUDY    22  11  62 S7        30.28S WCI  14
DECATUR        CLOUDY    24  10  55 S6        30.29S WCI  17
PEORIA         CLOUDY    24   8  50 SW5       30.28F WCI  18
LINCOLN*       CLOUDY    25  13  58 S3        30.29S
SPRINGFIELD    CLOUDY    26  12  55 S5        30.29F WCI  20
TAYLORVILLE    NOT AVBL
$$

ILZ033-039-045-046-055>057-062-063-120500-
EAST-CENTRAL ILLINOIS

CITY           SKY/WX    TMP DP  RH WIND       PRES   REMARKS
CHAMPAIGN      CLOUDY    20  12  71 CALM      30.29S
MATTOON        CLOUDY    21   9  59 CALM      30.29S
$$

ILZ079-100>102-120500-
SOUTHWEST ILLINOIS

CITY           SKY/WX    TMP DP  RH WIND       PRES   REMARKS
ALTON          CLOUDY    25  16  68 E6        30.27F WCI  18
BELLEVILLE     MOCLDY    27  13  55 E7        30.25F WCI  20
CAHOKIA*       CLOUDY    28  10  46 SE9       30.25F WCI  19
SPARTA*        CLOUDY    27  16  63 E3        30.29F
$$

ILZ064>066-069>071-074>076-080>082-084>086-088>090-092>094-120500-
SOUTH-CENTRAL ILLINOIS

CITY           SKY/WX    TMP DP  RH WIND       PRES   REMARKS
CARBONDALE     CLOUDY    29  17  61 E6        30.28F WCI  23
MARION         CLOUDY    30  19  64 CALM      30.30F
MT. VERNON     CLOUDY    27  12  54 E3        30.29F
CENTRALIA*     CLOUDY    27  17  67 E3        30.28F
SALEM*         CLOUDY    28  15  58 CALM      30.29F
$$

ILZ067-068-072-073-078-083-087-091-120500-
SOUTHEAST ILLINOIS

CITY           SKY/WX    TMP DP  RH WIND       PRES   REMARKS
LAWRENCEVILLE  CLOUDY    25  14  63 NE5       30.30F WCI  19
HARRISBURG*    CLOUDY    30  18  60 CALM      30.31R
$$

ABBREVIATIONS USED IN REMARKS
   TC - TEMPERATURE IN CELSIUS
  WCI - WIND CHILL INDEX
   HX - HEAT INDEX
  VSB - VISIBILITY
$$





USA.gov is the U.S. government's official web portal to all federal, state and local government web resources and services.